Weather History for KMSP - January, 2013

Change the Weather History Date:

Saturday, January 5, 2013

  Actual Average Record
Temperature  
Mean Temperature 18 °F 16 °F  
Max Temperature 26 °F 24 °F 47 °F (1885)
Min Temperature 10 °F 8 °F -28 °F (1924)
Degree Days  
Heating Degree Days 47 49  
Month to date heating degree days 241 245  
Since 1 July heating degree days 3013 3268  
Cooling Degree Days 0 0  
Month to date cooling degree days 0 0  
Year to date cooling degree days 0 0  
Moisture  
Dew Point 13 °F    
Average Humidity 77    
Maximum Humidity 92    
Minimum Humidity 62    
Precipitation  
Precipitation 0.00 in 0.03 in 0.63 in (1932)
Month to date precipitation 0.01 0.16  
Year to date precipitation 0.01 0.16  
Snow  
Snow 0.00 in 0.40 in 4.70 in (1994)
Month to date snowfall 1.0 1.9  
Since 1 July snowfall 16.8 23.7  
Snow Depth 3.00 in    
Sea Level Pressure  
Sea Level Pressure 30.00 in    
Wind  
Wind Speed 6 mph (SW)    
Max Wind Speed 14 mph    
Max Gust Speed 16 mph    
Visibility 7 miles    
Events      
T = Trace of Precipitation, MM = Missing Value Source: NWS Daily Summary

Daily Weather History Graph

Daily Weather History Graph

Search for Another Location

Airport or City:

Trip Planner

Search our weather history database for the weather conditions in past years. The results will help you decide how hot, cold, wet, or windy it might be!

Date:

Astronomy

Jan. 05, 2013 Rise Set
Actual Time 7:50 AM CST 4:46 PM CST
Civil Twilight 7:17 AM CST 5:20 PM CST
Nautical Twilight 6:40 AM CST 5:56 PM CST
Astronomical Twilight 6:04 AM CST 6:32 PM CST
Moon 12:48 AM CST (1/5) 11:44 AM CST (1/5)
Length of Visible Light 10h 02m
Length of Day
8h 56m
Last Quarter, 44% of the Moon is Illuminated
Jan 5
Last Quarter
Jan 11
New
Jan 18
First Quarter
Jan 26
Full
Feb 3
Last Quarter

Hourly Weather History & Observations

Time (CST) Temp. Windchill Dew Point Humidity Pressure Visibility Wind Dir Wind Speed Gust Speed Precip Events Conditions
12:53 AM 15.1 °F 9.4 °F 12.9 °F 91% 30.13 in 9.0 mi East 3.5 mph - N/A   Clear
1:53 AM 16.0 °F 6.3 °F 12.9 °F 88% 30.12 in 8.0 mi South 6.9 mph - N/A   Clear
2:53 AM 15.1 °F 9.4 °F 12.0 °F 88% 30.11 in 8.0 mi SE 3.5 mph - N/A   Clear
3:53 AM 14.0 °F 2.9 °F 10.9 °F 88% 30.08 in 8.0 mi East 8.1 mph - N/A   Clear
4:53 AM 14.0 °F - 10.9 °F 88% 30.07 in 7.0 mi Calm Calm - N/A   Clear
5:53 AM 10.9 °F -0.8 °F 9.0 °F 92% 30.04 in 7.0 mi SSE 8.1 mph - N/A   Clear
6:53 AM 10.9 °F -0.8 °F 9.0 °F 92% 30.04 in 7.0 mi SE 8.1 mph - N/A   Clear
7:53 AM 12.0 °F 2.7 °F 9.0 °F 88% 30.01 in 6.0 mi SE 5.8 mph - N/A   Clear
8:53 AM 12.0 °F 2.7 °F 9.0 °F 88% 30.01 in 6.0 mi SE 5.8 mph - N/A   Partly Cloudy
9:53 AM 14.0 °F 5.1 °F 10.9 °F 88% 29.98 in 6.0 mi SSE 5.8 mph - N/A   Clear
10:53 AM 19.9 °F 14.9 °F 14.0 °F 78% 29.97 in 6.0 mi SW 3.5 mph - N/A   Haze
11:53 AM 21.0 °F 11.4 °F 14.0 °F 74% 29.96 in 6.0 mi SW 8.1 mph - N/A   Haze
12:53 PM 23.0 °F 18.4 °F 14.0 °F 68% 29.92 in 6.0 mi WSW 3.5 mph - N/A   Haze
1:53 PM 24.1 °F 18.2 °F 14.0 °F 65% 29.90 in 6.0 mi SW 4.6 mph - N/A   Haze
2:53 PM 24.1 °F 17.0 °F 14.0 °F 65% 29.90 in 5.0 mi WSW 5.8 mph - N/A   Haze
3:53 PM 24.1 °F 17.0 °F 14.0 °F 65% 29.90 in 6.0 mi SW 5.8 mph - N/A   Haze
4:53 PM 21.9 °F 13.4 °F 12.9 °F 68% 29.92 in 6.0 mi WSW 6.9 mph - N/A   Haze
5:53 PM 21.0 °F 12.4 °F 12.9 °F 71% 29.94 in 8.0 mi West 6.9 mph - N/A   Mostly Cloudy
6:53 PM 19.9 °F 11.1 °F 12.9 °F 74% 29.97 in 8.0 mi WNW 6.9 mph - N/A   Mostly Cloudy
7:53 PM 19.0 °F 7.5 °F 12.9 °F 77% 29.99 in 8.0 mi NW 10.4 mph - N/A   Mostly Cloudy
8:53 PM 17.1 °F 6.6 °F 12.9 °F 84% 30.02 in 6.0 mi WNW 8.1 mph - N/A   Mostly Cloudy
9:53 PM 17.1 °F 6.6 °F 14.0 °F 88% 30.02 in 6.0 mi WNW 8.1 mph - N/A   Mostly Cloudy
10:35 PM 19.4 °F 8.6 °F 14.0 °F 80% 30.00 in 6.0 mi WNW 9.2 mph - N/A   Haze
10:53 PM 19.9 °F 9.3 °F 15.1 °F 81% 30.05 in 6.0 mi WNW 9.2 mph - N/A   Haze
11:12 PM 19.4 °F 9.5 °F 15.8 °F 86% 30.00 in 7.0 mi WNW 8.1 mph - N/A   Overcast
11:53 PM 19.0 °F 8.2 °F 15.1 °F 85% 30.05 in 7.0 mi WNW 9.2 mph - N/A   Overcast